TimeCEST,TemperatureF,Dew PointF,Humidity,Sea Level PressureIn,VisibilityMPH,Wind Direction,Wind SpeedMPH,Gust SpeedMPH,PrecipitationIn,Events,Conditions,WindDirDegrees,DateUTC
12:00 AM,55.4,50.0,82,30.15,-9999.0,WSW,6.9,-,N/A,,Clear,250,2013-06-13 22:00:00
12:30 AM,55.4,48.2,77,30.18,-9999.0,WSW,6.9,-,N/A,,Clear,240,2013-06-13 22:30:00
1:00 AM,53.6,48.2,82,30.18,6.2,WSW,5.8,-,N/A,,Partly Cloudy,240,2013-06-13 23:00:00
1:30 AM,55.4,48.2,77,30.18,6.2,WSW,8.1,-,N/A,,Scattered Clouds,250,2013-06-13 23:30:00
2:00 AM,53.6,48.2,82,30.18,6.2,West,4.6,-,N/A,,Partly Cloudy,280,2013-06-14 00:00:00
2:30 AM,51.8,48.2,88,30.18,-9999.0,WSW,4.6,-,N/A,,Clear,250,2013-06-14 00:30:00
3:00 AM,51.8,46.4,82,30.18,-9999.0,SW,4.6,-,N/A,,Clear,230,2013-06-14 01:00:00
3:30 AM,51.8,46.4,82,30.18,-9999.0,WSW,5.8,-,N/A,,Clear,250,2013-06-14 01:30:00
4:00 AM,50.0,44.6,82,30.18,-9999.0,WNW,4.6,-,N/A,,Clear,290,2013-06-14 02:00:00
4:30 AM,50.0,44.6,82,30.18,-9999.0,WNW,4.6,-,N/A,,Clear,290,2013-06-14 02:30:00
5:00 AM,50.0,44.6,82,30.18,-9999.0,West,4.6,-,N/A,,Clear,280,2013-06-14 03:00:00
5:30 AM,48.2,44.6,87,30.15,-9999.0,West,2.3,-,N/A,,Clear,260,2013-06-14 03:30:00
6:00 AM,48.2,44.6,87,30.18,-9999.0,WSW,3.5,-,N/A,,Clear,240,2013-06-14 04:00:00
6:30 AM,48.2,44.6,87,30.15,-9999.0,Variable,1.2,-,N/A,,Clear,0,2013-06-14 04:30:00
7:00 AM,50.0,46.4,87,30.18,-9999.0,SW,2.3,-,N/A,,Clear,230,2013-06-14 05:00:00
7:30 AM,51.8,46.4,82,30.15,-9999.0,Variable,1.2,-,N/A,,Clear,0,2013-06-14 05:30:00
8:00 AM,53.6,48.2,82,30.15,-9999.0,Variable,3.5,-,N/A,,Clear,0,2013-06-14 06:00:00
8:30 AM,53.6,46.4,77,30.15,-9999.0,Variable,2.3,-,N/A,,Clear,0,2013-06-14 06:30:00
9:00 AM,55.4,48.2,77,30.15,6.2,Calm,Calm,-,N/A,,Mostly Cloudy,0,2013-06-14 07:00:00
9:30 AM,57.2,44.6,63,30.15,6.2,Variable,1.2,-,N/A,,Mostly Cloudy,0,2013-06-14 07:30:00
10:00 AM,59.0,41.0,51,30.15,6.2,SE,4.6,-,N/A,,Mostly Cloudy,140,2013-06-14 08:00:00
10:30 AM,59.0,42.8,55,30.15,6.2,SSE,5.8,-,N/A,,Mostly Cloudy,150,2013-06-14 08:30:00
11:00 AM,60.8,48.2,63,30.15,6.2,SSE,3.5,-,N/A,,Mostly Cloudy,160,2013-06-14 09:00:00
11:30 AM,60.8,50.0,68,30.15,6.2,SE,8.1,-,N/A,,Mostly Cloudy,140,2013-06-14 09:30:00
12:00 PM,60.8,50.0,68,30.15,6.2,ESE,8.1,21.9,N/A,,Mostly Cloudy,120,2013-06-14 10:00:00
12:30 PM,62.6,50.0,63,30.15,6.2,SE,4.6,-,N/A,,Mostly Cloudy,140,2013-06-14 10:30:00
1:00 PM,62.6,48.2,59,30.12,6.2,ESE,5.8,-,N/A,,Mostly Cloudy,120,2013-06-14 11:00:00
1:30 PM,62.6,46.4,55,30.09,6.2,SE,6.9,-,N/A,,Scattered Clouds,140,2013-06-14 11:30:00
2:00 PM,64.4,48.2,56,30.09,6.2,Variable,5.8,-,N/A,,Scattered Clouds,0,2013-06-14 12:00:00
2:30 PM,64.4,50.0,59,30.09,6.2,SE,10.4,-,N/A,,Mostly Cloudy,140,2013-06-14 12:30:00
3:00 PM,64.4,48.2,56,30.06,6.2,SE,6.9,-,N/A,,Mostly Cloudy,130,2013-06-14 13:00:00
3:30 PM,66.2,50.0,56,30.06,6.2,SE,8.1,-,N/A,,Mostly Cloudy,130,2013-06-14 13:30:00
4:00 PM,64.4,48.2,56,30.06,6.2,SSE,8.1,-,N/A,,Scattered Clouds,150,2013-06-14 14:00:00
4:30 PM,66.2,48.2,52,30.04,6.2,ESE,9.2,-,N/A,,Scattered Clouds,120,2013-06-14 14:30:00
5:00 PM,68.0,46.4,46,30.04,6.2,SE,8.1,-,N/A,,Scattered Clouds,140,2013-06-14 15:00:00
5:30 PM,68.0,48.2,49,30.04,6.2,SSE,9.2,-,N/A,,Scattered Clouds,160,2013-06-14 15:30:00
6:00 PM,66.2,50.0,56,30.04,6.2,ESE,9.2,-,N/A,,Scattered Clouds,120,2013-06-14 16:00:00
6:30 PM,66.2,48.2,52,30.04,-9999.0,SSE,10.4,-,N/A,,Clear,160,2013-06-14 16:30:00
7:00 PM,66.2,46.4,49,30.01,6.2,SSE,9.2,-,N/A,,Scattered Clouds,160,2013-06-14 17:00:00
7:30 PM,66.2,46.4,49,30.01,6.2,South,10.4,-,N/A,,Partly Cloudy,170,2013-06-14 17:30:00
8:00 PM,66.2,48.2,52,30.01,6.2,SSE,11.5,-,N/A,,Partly Cloudy,150,2013-06-14 18:00:00
8:30 PM,64.4,48.2,56,30.01,6.2,SSE,10.4,-,N/A,,Partly Cloudy,150,2013-06-14 18:30:00
9:00 PM,64.4,46.4,52,30.01,-9999.0,SSE,9.2,-,N/A,,Clear,150,2013-06-14 19:00:00
9:30 PM,62.6,48.2,59,30.01,-9999.0,SSE,8.1,-,N/A,,Clear,150,2013-06-14 19:30:00
10:00 PM,62.6,48.2,59,30.01,-9999.0,SSE,8.1,-,N/A,,Clear,150,2013-06-14 20:00:00
10:30 PM,60.8,48.2,63,30.01,-9999.0,SSE,6.9,-,N/A,,Clear,150,2013-06-14 20:30:00
11:00 PM,60.8,48.2,63,29.98,-9999.0,SSE,6.9,-,N/A,,Clear,150,2013-06-14 21:00:00
11:30 PM,60.8,48.2,63,29.98,6.2,SSE,6.9,-,N/A,,Scattered Clouds,150,2013-06-14 21:30:00